Location: Forgeas
(46.0452°N, 1.6697°E)
Time: 04:36:49
(UTC+00:00)

Daily predictions for brighter satellites

Satellite Brightness Start Highest point End
(mag) Time Altitude Azimuth Time Altitude Azimuth Time Altitude Azimuth
Cosmos 2322 Rocket 2.2 00:05:15 51° SW 00:06:41 74° WNW 00:12:19 10° NNE
Okean 1-7 3.5 00:06:47 48° W 00:07:00 48° WNW 00:11:17 10° N
Cosmos 923 Rocket 4.0 00:04:22 10° NNW 00:09:39 63° WSW 00:10:11 59° SW
Cosmos 1818 4.1 00:04:34 10° NNW 00:09:57 55° NE 00:12:49 26° ESE
ALOS 2 4.0 00:11:03 27° W 00:11:03 27° W 00:14:35 10° NW
USA 267 3.7 00:10:32 39° SW 00:10:50 39° SW 00:16:53 10° WNW
Cosmos 1242 Rocket 4.1 00:07:51 10° N 00:11:02 28° ENE 00:11:04 28° ENE
ATLAS CENTAUR R/B 3.1 00:08:31 10° NNW 00:13:06 37° NE 00:16:20 17° ESE
Cosmos 1782 Rocket 3.8 00:14:12 10° NNW 00:18:18 54° W 00:18:18 54° W
Cosmos 372 Rocket 4.0 00:19:41 56° SE 00:20:15 60° ESE 00:25:20 10° NNE
ERS-2 4.1 00:17:44 10° NNW 00:20:26 20° WNW 00:20:41 20° WNW
Okean 2 Rocket 3.8 00:16:27 10° N 00:20:48 45° ENE 00:21:36 41° ESE
ADEOS Rocket 3.2 00:20:34 42° WSW 00:21:23 45° W 00:26:53 10° NNW
Cosmos 1953 4.4 00:22:54 10° NNE 00:25:59 21° ENE 00:27:20 18° E
Cosmos 1844 Rocket 2.6 00:20:56 10° NNW 00:26:29 65° WSW 00:27:19 57° SSW
Cosmos 1844 3.7 00:21:50 10° NNW 00:27:39 76° WSW 00:28:56 55° S
Meteor 1-21 4.4 00:26:51 50° SSE 00:28:18 70° E 00:34:06 10° NNE
Cosmos 2112 Rocket 4.0 00:25:12 10° NNW 00:30:29 64° WSW 00:31:08 58° SW
Cosmos 1937 Rocket 3.4 00:29:41 60° SW 00:30:39 81° WNW 00:35:57 10° NNE
Cosmos 1758 3.5 00:29:29 10° N 00:33:25 64° ENE 00:33:27 64° E
Cosmos 1680 Rocket 3.7 00:28:43 10° NNW 00:33:51 51° WSW 00:34:17 50° WSW
Sich 1 Rocket 3.4 00:31:05 10° N 00:35:30 81° E 00:35:48 75° SE
Cosmos 1674 3.1 00:36:19 52° ENE 00:36:19 52° ENE 00:39:40 10° NNE
Resurs 1-4 Rocket 3.7 00:33:12 10° NE 00:37:28 25° E 00:39:19 20° ESE
Cosmos 1470 3.3 00:33:58 10° NNW 00:37:14 47° WNW 00:37:14 47° WNW
Okean 2 3.4 00:39:06 70° E 00:39:06 70° E 00:43:11 10° NNE
SL-08 ROCKET BODY 4.3 00:33:37 10° NNW 00:39:30 68° W 00:40:56 50° SSW
CZ-4C R/B 3.6 00:33:01 10° NNW 00:39:56 55° NE 00:48:07 10° ESE
Cosmos 2219 Rocket 2.3 00:39:12 49° SSE 00:40:21 60° ESE 00:45:51 10° NNE
Cosmos 1707 2.8 00:40:54 69° NW 00:40:54 69° NW 00:44:33 10° N
SL-16 R/B 3.5 00:38:30 20° W 00:41:28 33° NW 00:46:35 10° NNE
NOSS 3-1 (C) 4.2 00:37:27 10° NW 00:44:52 77° NE 00:53:39 10° SE
COSMOS 2428 3.2 00:44:03 40° SE 00:45:23 47° ESE 00:50:49 10° NE
Cosmos 1437 Rocket 4.2 00:42:21 10° N 00:45:43 30° ENE 00:46:36 27° E
Cosmos 1726 4.3 00:43:39 10° NW 00:45:19 16° WNW 00:45:19 16° WNW
Cosmos 1300 Rocket 3.8 00:42:02 10° NNW 00:46:12 51° W 00:46:12 51° W
ATLAS 3B R/B 3.4 00:40:35 10° NW 00:47:22 40° WSW 00:48:51 37° SW
ASTEX 1 3.6 00:43:26 10° N 00:48:14 56° W 00:49:02 50° WSW
Cosmos 1898 Rocket 4.3 00:48:35 33° WSW 00:50:19 42° WNW 00:55:24 10° N
MOZ.5/SAFIR/RUBIN 5/SL-8 3.9 00:53:59 46° SE 00:55:17 71° ENE 01:00:00 10° N
Cosmos 1626 2.1 00:55:39 75° NE 00:55:39 75° NE 00:59:07 10° NNE
S3M 4.2 00:54:26 37° SSE 00:57:01 66° E 01:03:21 10° NNE
Cosmos 2237 Rocket 3.8 00:57:20 18° SE 00:59:32 23° E 01:03:54 10° NE
Cosmos 2333 4.3 01:01:59 43° SW 01:03:46 68° WNW 01:09:24 10° NNE
KORONAS-FOTON 3.9 01:03:59 62° WNW 01:03:59 62° WNW 01:07:39 10° N
Cosmos 1553 Rocket 3.9 01:02:58 43° SSW 01:05:00 72° W 01:11:10 10° N
ADEOS II 3.8 01:01:46 10° NE 01:05:56 23° E 01:08:45 15° SE
Cosmos 1300 4.0 01:07:03 10° N 01:10:33 34° ENE 01:11:51 27° ESE
Cosmos 405 Rocket 2.6 01:10:48 71° ESE 01:10:53 72° E 01:14:37 10° NNE
Cosmos 2221 Rocket 3.7 01:10:51 54° WSW 01:11:27 60° W 01:15:50 10° N
Cosmos 1386 Rocket 4.3 01:05:37 10° N 01:11:39 85° W 01:14:07 38° S
Okean 1 Rocket 3.1 01:11:11 10° N 01:15:36 75° E 01:16:47 47° SSE
Cosmos 2360 Rocket 3.3 01:13:37 23° WSW 01:16:18 36° NW 01:21:29 10° NNE
IDEFIX/ARIANE 42P 4.3 01:13:23 10° NE 01:17:40 24° E 01:20:55 14° SE
ATLAS 5 CENTAUR R/B 2.8 01:06:32 10° NW 01:18:10 71° SW 01:19:49 39° SSE
Cosmos 1238 Rocket 3.6 01:15:21 10° NNW 01:17:10 29° NW 01:17:10 29° NW
Cosmos 1461 3.4 01:16:04 10° NNW 01:20:10 59° NE 01:23:29 16° SE
Cosmos 1908 3.4 01:17:00 10° NNW 01:20:34 53° W 01:20:34 53° W
Meteor 2-10 Rocket 4.4 01:17:20 10° N 01:22:57 50° ENE 01:27:14 16° SE
Cosmos 2278 Rocket 2.7 01:22:26 10° NNW 01:28:05 60° ENE 01:33:40 10° SE
CZ-2D R/B 2.3 01:22:52 10° NNE 01:28:17 64° ESE 01:30:34 34° S
Cosmos 1867 3.6 01:30:59 41° SSW 01:32:56 74° SE 01:38:25 10° NE
SME Rocket 2.9 01:32:57 56° SSW 01:33:33 66° WSW 01:37:53 10° NNW
Gblst 52 Del rocket 4.3 01:30:00 23° WSW 01:33:46 74° NNW 01:39:19 10° ENE
Cosmos 1048 Rocket 3.8 01:28:59 10° NNW 01:34:12 78° WSW 01:36:29 34° S
Cosmos 2333 Rocket 3.0 01:33:18 27° WSW 01:35:55 43° NW 01:41:20 10° NNE
Cosmos 1125 Rocket 3.5 01:37:42 37° S 01:39:44 72° ESE 01:44:56 10° NNE
Cosmos 1745 Rocket 4.2 01:34:56 10° NNW 01:41:01 54° W 01:43:37 33° SSW
SL-16 R/B 2.5 01:37:47 19° SSE 01:42:21 85° ENE 01:48:37 10° NNW
YAOGAN 11 4.4 01:39:55 24° SSE 01:42:30 65° ENE 01:46:56 10° N
SL-16 R/B 4.4 01:39:06 10° SE 01:42:37 17° E 01:46:09 10° ENE
Cosmos 2322 4.2 01:40:26 29° WSW 01:43:04 51° WNW 01:48:40 10° NNE
Thor Agena Rocket 4.0 01:38:51 10° N 01:43:56 50° WNW 01:46:03 32° SW
Cosmos 1674 Rocket 4.3 01:43:30 34° WSW 01:44:27 39° WNW 01:48:33 10° N
Cosmos 1943 Rocket 4.3 01:39:53 10° N 01:44:42 27° NE 01:49:29 10° ESE
Cosmos 1242 Rocket 4.4 01:42:52 10° NW 01:44:51 18° WNW 01:44:51 18° WNW
EO 1 Del DPAF 4.4 01:44:07 10° NNE 01:47:19 32° E 01:48:38 24° SE
Cosmos 2298 Rocket 4.0 01:45:28 36° SSW 01:47:43 85° ESE 01:53:03 10° NNE
USA 290 2.7 01:48:51 46° WNW 01:49:03 47° WNW 01:52:12 10° NNE
Cosmos 1980 4.0 01:46:55 29° S 01:49:42 60° ESE 01:55:16 10° NNE
Cosmos 2322 Rocket 4.4 01:48:22 10° WNW 01:51:46 16° NW 01:55:09 10° N
ATLAS CENTAUR R/B 2.2 01:47:27 10° NW 01:51:54 37° WSW 01:52:16 36° SW
Cosmos 494 Rocket 4.1 01:51:56 10° NNW 01:56:56 54° WSW 01:59:08 31° SSW
AQUA 3.9 01:52:24 10° NNE 01:57:11 76° ESE 01:59:34 30° S
SL-14 R/B 3.7 01:56:23 39° WSW 01:57:15 47° WNW 02:01:02 10° N
USA 229 DEB 3.9 01:50:25 10° NW 01:57:49 87° SW 02:05:43 10° SE
USA 229 3.9 01:50:31 10° NW 01:57:55 88° SW 02:05:47 10° SE
OE (NEXTSAT) 4.0 01:57:23 45° W 01:58:17 82° S 02:01:37 10° ESE
Cosmos 1455 Rocket 3.2 01:55:40 10° N 02:00:09 77° E 02:03:00 22° SSE
Cosmos 1953 3.1 01:58:45 10° NNW 02:02:23 33° W 02:02:56 32° WSW
GP-B 3.7 01:59:13 10° NNW 02:03:25 41° W 02:04:47 32° SW
NOSS 2-2 (C) 4.3 02:00:00 10° NW 02:05:07 88° SW 02:12:23 10° SE
Helios 1A 3.2 02:02:52 17° SSE 02:06:02 71° ENE 02:10:14 10° N
Cosmos 371 Rocket 3.3 02:04:37 32° SSW 02:06:52 75° WNW 02:11:45 10° NNE
MSX 4.5 02:01:33 10° NNE 02:07:11 51° E 02:11:47 15° S
UNK 3.7 02:07:23 27° S 02:09:45 64° WSW 02:14:20 10° NNW
NPP 3.7 02:04:43 10° N 02:10:05 69° WNW 02:13:05 27° SSW
Meteor 1-28 Rocket 3.1 02:10:52 24° SSE 02:13:01 90° ENE 02:16:47 10° NNW
Cosmos 1975 Rocket 3.0 02:11:29 30° SSW 02:13:38 81° W 02:18:06 10° N
CZ-4 R/B 4.3 02:09:15 10° N 02:13:44 47° WNW 02:15:54 27° SW
USA 306 3.8 02:13:37 26° S 02:15:08 35° SE 02:18:56 10° ENE
USA 307 4.0 02:13:44 23° S 02:15:16 30° SE 02:18:58 10° ENE
Resurs 1-4 Rocket 2.5 02:12:28 10° N 02:17:31 48° WNW 02:20:23 24° SW
NOSS 2-2 (E) 4.4 02:12:54 10° NW 02:18:11 62° SW 02:25:37 10° SSE
Cosmos 1437 Rocket 4.2 02:18:56 10° NW 02:21:42 20° W 02:21:54 20° W
Cosmos 2315 Rocket 4.3 02:18:05 24° SW 02:21:51 53° WNW 02:28:06 10° N
SAR-Lupe-2 3.9 02:20:17 10° N 02:23:46 49° WNW 02:25:09 30° SW
NOSS 3-1 (A) 4.2 02:17:00 10° NW 02:24:25 56° WSW 02:32:59 10° SSE
Cosmos 2219 Rocket 3.7 02:20:54 13° W 02:24:42 26° NW 02:29:22 10° N
Helios 1B rocket 4.3 02:21:49 10° NE 02:25:15 26° E 02:28:39 10° SSE
Cosmos 2074 Rocket 4.1 02:19:05 10° N 02:25:25 80° E 02:31:43 10° SSE
NOSS 0 Rocket 4.1 02:22:49 22° SW 02:26:52 63° WNW 02:33:05 10° NNE
MOS 1 Rocket 3.3 02:26:10 24° SSW 02:28:30 49° W 02:32:40 10° NNW
CZ-4C R/B 3.3 02:21:36 10° NW 02:28:41 47° WSW 02:36:46 10° S
COSMOS 2428 3.9 02:26:02 16° WSW 02:29:49 32° NW 02:34:54 10° NNE
Cosmos 2184 Rocket 4.0 02:26:57 10° N 02:33:18 87° E 02:39:32 10° S
Cosmos 304 Rocket 3.8 02:30:28 24° SW 02:33:23 68° WNW 02:38:13 10° NNE
Cosmos 1269 Rocket 4.1 02:32:08 10° NNW 02:37:27 84° ENE 02:42:43 10° SSE
Cosmos 1455 2.1 02:38:12 10° N 02:41:56 81° E 02:45:37 10° S
Cosmos 2237 Rocket 2.5 02:39:10 20° SW 02:43:07 59° WNW 02:48:47 10° NNE
Cosmos 1025 Rocket 3.4 02:41:57 21° SW 02:44:34 47° WNW 02:48:46 10° N
USA 308 3.3 02:42:41 21° SSW 02:45:14 51° SE 02:49:19 10° ENE
BREEZE-M DEB (TANK) 4.1 02:33:31 10° WSW 02:45:15 71° NNW 02:48:47 10° ENE
Cosmos 1544 Rocket 3.5 02:41:10 10° NNW 02:45:36 69° W 02:49:52 11° S
Cosmos 1300 4.4 02:43:17 10° NW 02:45:50 17° W 02:46:41 16° WSW
ADEOS II 2.4 02:40:48 10° N 02:45:54 51° WNW 02:49:41 17° SW
Cosmos 2084 Rocket 4.3 02:43:24 15° S 02:46:06 35° ESE 02:49:36 10° NE
Lacrosse 5 3.1 02:48:06 12° S 02:52:12 32° SE 02:56:42 10° ENE
Cosmos 2297 4.3 02:48:04 10° NNW 02:53:49 64° ENE 02:59:30 10° SE
IDEFIX/ARIANE 42P 3.0 02:52:24 10° N 02:57:28 49° WNW 03:01:43 14° SW
Cosmos 1461 4.4 02:56:00 10° WNW 02:58:46 17° WSW 02:59:38 16° SW
Cosmos 332 Rocket 4.5 03:02:46 15° SW 03:06:26 41° WNW 03:11:00 10° N
CZ-2D R/B 3.7 03:03:50 10° NNW 03:07:49 21° WNW 03:11:44 10° WSW
Cosmos 2278 Rocket 3.4 03:07:22 10° NW 03:11:41 23° W 03:15:58 10° SSW
USA 305 2.8 03:09:06 14° WSW 03:12:41 88° NNW 03:16:54 10° ENE
ERBS 2.1 03:14:11 14° SW 03:16:40 74° SE 03:19:45 10° NE
Meteor 1-24 Rocket 4.4 03:13:15 12° SW 03:18:11 39° WNW 03:23:22 10° N
Nadezhda 1 Rocket 4.2 03:16:02 10° SSW 03:22:22 64° W 03:28:41 10° N
FENGYUN 3A 3.8 03:19:43 10° NNE 03:25:08 78° ESE 03:30:30 10° S
Cosmos 2341 Rocket 4.3 03:19:30 10° N 03:25:55 77° E 03:32:18 10° SSE
SL-16 R/B 2.3 03:20:21 10° SSW 03:26:01 77° WNW 03:31:44 10° NNE
SL-16 R/B 4.0 03:22:53 10° SW 03:26:42 17° W 03:30:34 10° NW
Cosmos 1943 Rocket 2.3 03:23:15 10° NNW 03:28:49 58° WSW 03:34:20 10° S
COSMOS 2455 3.4 03:24:44 10° SSW 03:30:37 59° ESE 03:36:33 10° NE
Cosmos 2369 Rocket 2.8 03:25:26 10° NNW 03:31:00 62° ENE 03:36:32 10° SE
Cosmos 2154 Rocket 4.5 03:32:18 10° NNW 03:38:14 43° W 03:44:09 10° SSW
ARIANE 5 R/B 2.8 03:34:08 10° NNE 03:39:15 73° ESE 03:44:16 10° S
CBERS-1 4.4 03:34:31 10° N 03:39:28 51° WNW 03:44:24 10° SW
Cosmos 2366 rocket 4.3 03:37:25 10° N 03:43:35 73° E 03:49:44 10° SSE
